EW4696 Weather Reports


Display with metric or nautical units.
time (UTC)temp
F
wind
direction
speed
MPH
gust
MPH
rain 1hr
in
rain 24hr
in
rain mn
in
humidity
%
barometer
mb
20260504231504 80 205 2.0 8.0 0.00 0.00 0.00 65 1009.5
20260504231003 80 220 2.0 7.0 0.00 0.00 0.00 64 1009.5
20260504230004 80 185 2.0 7.0 0.00 0.00 0.00 65 1009.6
20260504225503 80 167 2.0 7.0 0.00 0.00 0.00 64 1009.7
20260504225004 81 185 2.0 5.0 0.00 0.00 0.00 64 1009.8
20260504224503 81 203 2.0 7.0 0.00 0.00 0.00 63 1009.8
20260504224003 82 184 2.0 7.0 0.00 0.00 0.00 62 1009.9
20260504223504 82 190 1.0 4.0 0.00 0.00 0.00 63 1009.9
20260504223004 82 220 2.0 6.0 0.00 0.00 0.00 62 1009.8
20260504222004 81 197 2.0 11.0 0.00 0.00 0.00 63 1009.9
20260504221503 82 176 2.0 8.0 0.00 0.00 0.00 62 1010.0
20260504221004 82 179 2.0 5.0 0.00 0.00 0.00 62 1010.0
20260504215504 82 185 2.0 7.0 0.00 0.00 0.00 63 1010.2
20260504215003 82 188 2.0 8.0 0.00 0.00 0.00 62 1010.1
20260504214504 82 185 2.0 8.0 0.00 0.00 0.00 62 1010.0
20260504213503 82 197 2.0 6.0 0.00 0.00 0.00 63 1010.1
20260504212503 82 198 2.0 7.0 0.00 0.00 0.00 62 1010.5
20260504212004 82 205 2.0 6.0 0.00 0.00 0.00 62 1010.8
20260504211504 82 200 2.0 5.0 0.00 0.00 0.00 63 1010.8
20260504211003 82 168 2.0 6.0 0.00 0.00 0.00 63 1010.8
20260504210504 82 171 2.0 6.0 0.00 0.00 0.00 64 1010.9
20260504210004 81 187 2.0 7.0 0.00 0.00 0.00 65 1011.1
20260504205504 81 183 2.0 7.0 0.00 0.00 0.00 64 1011.1
20260504204503 80 186 1.0 5.0 0.00 0.00 0.00 65 1011.3
20260504204004 81 205 1.0 5.0 0.00 0.00 0.00 64 1011.3
20260504203503 81 186 1.0 6.0 0.00 0.00 0.00 65 1011.4
20260504202504 81 174 2.0 6.0 0.00 0.00 0.00 63 1011.7
20260504202003 81 176 2.0 8.0 0.00 0.00 0.00 63 1011.8
20260504201503 81 176 2.0 8.0 0.00 0.00 0.00 63 1011.9
20260504200504 81 210 2.0 6.0 0.00 0.00 0.00 64 1012.1
20260504200004 81 203 2.0 6.0 0.00 0.00 0.00 64 1012.2
20260504195504 81 214 2.0 5.0 0.00 0.00 0.00 65 1012.3
20260504195004 81 240 2.0 5.0 0.00 0.00 0.00 63 1012.3
20260504194503 81 226 2.0 6.0 0.00 0.00 0.00 62 1012.5
20260504194004 82 199 2.0 8.0 0.00 0.00 0.00 63 1012.6
20260504193504 82 189 2.0 8.0 0.00 0.00 0.00 61 1012.5
20260504192503 82 168 2.0 7.0 0.00 0.00 0.00 64 1012.7
20260504192004 81 192 2.0 10.0 0.00 0.00 0.00 64 1012.6
20260504191503 81 199 2.0 11.0 0.00 0.00 0.00 64 1012.9
20260504191003 81 187 2.0 11.0 0.00 0.00 0.00 64 1013.0
20260504190504 80 184 2.0 8.0 0.00 0.00 0.00 66 1013.1
20260504185503 79 201 1.0 5.0 0.00 0.00 0.00 66 1013.0
20260504185004 79 209 2.0 7.0 0.00 0.00 0.00 66 1013.0
20260504184003 79 197 2.0 5.0 0.00 0.00 0.00 66 1013.1
20260504183503 79 191 2.0 9.0 0.00 0.00 0.00 68 1013.2
20260504183004 78 191 2.0 9.0 0.00 0.00 0.00 67 1013.4
20260504182504 78 222 2.0 9.0 0.00 0.00 0.00 68 1013.5
20260504182003 78 243 2.0 9.0 0.00 0.00 0.00 67 1013.7
20260504181504 78 207 2.0 8.0 0.00 0.00 0.00 67 1013.9
20260504181004 78 171 1.0 8.0 0.00 0.00 0.00 68 1013.8
20260504180504 78 185 1.0 6.0 0.00 0.00 0.00 70 1013.8
20260504180004 77 165 2.0 6.0 0.00 0.00 0.00 73 1013.8
20260504175504 76 174 2.0 8.0 0.00 0.00 0.00 72 1013.8
20260504175003 75 208 1.0 8.0 0.00 0.00 0.00 74 1013.9
20260504174503 74 184 2.0 7.0 0.00 0.00 0.00 73 1014.1
20260504174004 74 187 2.0 6.0 0.00 0.00 0.00 73 1014.1
20260504173504 74 201 2.0 8.0 0.00 0.00 0.00 72 1014.4
20260504172503 74 187 1.0 6.0 0.00 0.00 0.00 72 1014.6
20260504172004 74 193 2.0 7.0 0.00 0.00 0.00 74 1014.7
20260504171504 74 195 1.0 7.0 0.00 0.00 0.00 73 1014.9
20260504170503 74 165 2.0 9.0 0.00 0.00 0.00 74 1014.8
20260504151003 71 203 2.0 9.0 0.00 0.00 0.00 75 1015.6
20260504150504 72 205 2.0 7.0 0.00 0.00 0.00 74 1015.5
20260504141003 67 189 1.0 6.0 0.00 0.00 0.00 79 1015.7
20260504140503 67 183 1.0 5.0 0.00 0.00 0.00 80 1015.7
20260504130504 63 205 1.0 4.0 0.00 0.00 0.00 84 1015.6
20260504110504 60 0 0.0 4.0 0.00 0.00 0.00 85 1015.1
20260504100504 61 200 1.0 6.0 0.00 0.00 0.00 83 1015.2
20260504082003 63 221 1.0 5.0 0.00 0.00 0.00 80 1015.7
20260504081504 63 0 0.0 4.0 0.00 0.00 0.00 80 1015.7
20260504081004 63 229 1.0 4.0 0.00 0.00 0.00 80 1015.9
20260504080503 63 207 1.0 5.0 0.00 0.00 0.00 79 1015.8
20260504050503 66 179 1.0 6.0 0.00 0.00 0.00 70 1017.8
20260504050004 66 159 1.0 6.0 0.00 0.00 0.00 69 1017.7
20260504045503 66 172 1.0 4.0 0.00 0.00 0.00 69 1017.7
20260504044503 66 201 1.0 7.0 0.00 0.00 0.00 68 1017.9
20260504044004 67 200 2.0 7.0 0.00 0.00 0.00 67 1017.9
20260504043503 67 196 1.0 6.0 0.00 0.00 0.00 67 1018.0
20260504043003 67 190 1.0 5.0 0.00 0.00 0.00 67 1018.0
20260504042505 66 189 1.0 5.0 0.00 0.00 0.00 66 1018.0
20260504041504 66 0 0.0 3.0 0.00 0.00 0.00 65 1018.1
20260504041005 66 0 0.0 3.0 0.00 0.00 0.00 66 1018.1
20260504040504 65 0 0.0 2.0 0.00 0.00 0.00 66 1018.1
20260504040004 65 0 0.0 2.0 0.00 0.00 0.00 66 1018.2
20260504035505 65 0 0.0 2.0 0.00 0.00 0.00 66 1018.1
20260504035005 65 0 0.0 1.0 0.00 0.00 0.00 65 1018.1
20260504034504 65 0 0.0 0.0 0.00 0.00 0.00 64 1018.0
20260504034004 65 0 0.0 0.0 0.00 0.00 0.00 63 1018.1
20260504033505 66 0 0.0 0.0 0.00 0.00 0.00 62 1018.0
20260504033005 66 0 0.0 0.0 0.00 0.00 0.00 61 1018.0
20260504032504 66 0 0.0 0.0 0.00 0.00 0.00 59 1017.9
20260504031505 67 0 0.0 0.0 0.00 0.00 0.00 59 1018.0
20260504031005 67 0 0.0 0.0 0.00 0.00 0.00 58 1018.1
20260504030504 67 0 0.0 0.0 0.00 0.00 0.00 57 1018.1
20260504030005 68 0 0.0 1.0 0.00 0.00 0.00 57 1018.1
20260504025505 68 0 0.0 1.0 0.00 0.00 0.00 57 1018.0
20260504025005 68 0 0.0 1.0 0.00 0.00 0.00 57 1018.0
20260504024504 68 0 0.0 1.0 0.00 0.00 0.00 58 1018.1
20260504024005 68 0 0.0 2.0 0.00 0.00 0.00 58 1018.2
20260504023505 68 0 0.0 2.0 0.00 0.00 0.00 58 1018.0
20260504023004 68 0 0.0 0.0 0.00 0.00 0.00 58 1017.8
20260504022505 68 0 0.0 0.0 0.00 0.00 0.00 58 1017.9
20260504021504 68 0 0.0 1.0 0.00 0.00 0.00 57 1018.0
20260504021004 69 0 0.0 1.0 0.00 0.00 0.00 56 1018.0
20260504020505 69 0 0.0 0.0 0.00 0.00 0.00 55 1017.9
20260504020005 69 0 0.0 0.0 0.00 0.00 0.00 54 1017.8
20260504015504 69 0 0.0 1.0 0.00 0.00 0.00 54 1017.7
20260504015004 70 0 0.0 1.0 0.00 0.00 0.00 53 1017.4
20260504014505 70 0 0.0 1.0 0.00 0.00 0.00 53 1017.4
20260504014005 70 0 0.0 1.0 0.00 0.00 0.00 52 1017.3
20260504013504 70 0 0.0 0.0 0.00 0.00 0.00 52 1017.3
20260504013004 71 0 0.0 0.0 0.00 0.00 0.00 51 1017.4
20260504012505 71 0 0.0 1.0 0.00 0.00 0.00 51 1017.4
20260504012004 71 0 0.0 1.0 0.00 0.00 0.00 50 1017.4
20260504011504 71 0 0.0 2.0 0.00 0.00 0.00 50 1017.4
20260504011004 72 0 0.0 2.0 0.00 0.00 0.00 50 1017.4
20260504010505 72 0 0.0 1.0 0.00 0.00 0.00 49 1017.4
20260504010004 72 0 0.0 3.0 0.00 0.00 0.00 49 1017.4
20260504005504 72 0 0.0 3.0 0.00 0.00 0.00 48 1017.3
20260504005005 73 0 0.0 3.0 0.00 0.00 0.00 48 1017.3
20260504004505 73 187 1.0 3.0 0.00 0.00 0.00 47 1017.3
20260504004004 73 0 0.0 4.0 0.00 0.00 0.00 47 1017.3
20260504003005 74 0 0.0 3.0 0.00 0.00 0.00 46 1017.5
20260504002505 74 0 0.0 2.0 0.00 0.00 0.00 46 1017.4
20260504002004 74 0 0.0 2.0 0.00 0.00 0.00 47 1017.5
20260504001504 74 0 0.0 2.0 0.00 0.00 0.00 47 1017.6
20260504001005 74 0 0.0 6.0 0.00 0.00 0.00 45 1017.7
20260504000505 74 0 0.0 6.0 0.00 0.00 0.00 45 1017.8
20260504000004 74 0 0.0 2.0 0.00 0.00 0.00 46 1017.8
20260503235504 75 0 0.0 3.0 0.00 0.00 0.00 45 1018.0
20260503234505 75 175 1.0 5.0 0.00 0.00 0.00 44 1017.9
20260503234004 75 0 0.0 4.0 0.00 0.00 0.00 44 1017.9
20260503233505 75 0 0.0 4.0 0.00 0.00 0.00 45 1018.0
20260503233005 75 0 0.0 4.0 0.00 0.00 0.00 44 1018.0
20260503232504 76 122 1.0 5.0 0.00 0.00 0.00 45 1018.1
20260503232005 76 105 1.0 5.0 0.00 0.00 0.00 45 1018.1